Wetbulb
73.80 74.96 76.25 76.86 76.47 76.13 76.21 76.56 76.44 76.27 76.27 76.11 76.06 76.00 76.14 76.24 76.88 77.41 77.09 76.99 77.26 77.83 77.90 77.77 77.78 77.65 77.55 77.25 76.80 76.57 76.76 76.62 76.45 76.78 76.02 76.32 76.21 76.01 75.30 74.83 77.21 75.20 75.01
75.08 75.56 76.52 77.75 76.38 76.32 76.17 76.19 76.40 76.51 76.27 77.00 76.08 74.79 75.14 75.82 75.93 76.76 76.35 77.18 76.95 77.46 77.18 76.99 76.85 77.55 76.92 77.05 76.62 76.58 76.32 77.02 76.93 76.16 76.13 75.91 75.57 75.87 75.21 76.26 76.12 75.49 74.24
75.01 75.79 76.48 77.34 77.13 76.25 76.38 75.95 76.32 77.18 76.63 77.18 76.15 75.70 75.18 75.34 75.26 76.05 76.43 76.56 76.82 76.93 77.25 77.36 76.97 77.37 76.92 77.24 76.74 76.58 76.94 76.64 76.32 76.30 77.22 74.99 73.56 75.46 76.07 76.02 75.02 74.75 74.02
75.50 75.50 76.05 77.10 77.86 76.63 76.48 76.23 76.24 76.99 76.67 77.06 76.80 76.71 76.09 76.61 76.04 75.71 76.39 76.24 76.28 76.95 76.86 77.20 77.17 76.89 76.66 77.23 76.94 76.64 76.50 75.57 75.16 75.76 74.74 74.41 74.83 74.11 74.60 73.67 73.67 73.75 75.01
75.21 75.92 77.08 77.00 77.24 77.33 77.01 76.42 76.77 76.91 76.62 76.77 76.73 76.29 76.07 76.32 76.22 76.30 76.29 76.01 76.19 76.57 76.82 77.09 76.63 76.24 76.05 76.43 76.43 76.43 76.36 75.35 74.23 76.54 75.60 74.20 76.18 74.78 75.08 75.10 75.15 74.57 75.51
75.10 76.12 76.66 77.12 77.22 76.99 76.82 76.82 76.89 76.69 76.57 76.62 76.32 76.47 76.25 76.22 76.48 76.18 75.82 76.42 76.53 76.46 76.51 76.51 76.24 75.33 75.49 76.29 76.39 75.97 75.16 74.58 76.68 74.26 75.02 74.95 73.93 74.72 74.58 74.19 74.39 75.27 75.40
74.69 76.09 76.86 77.77 77.22 77.22 77.05 77.14 76.74 76.29 76.15 76.37 76.21 76.28 76.03 76.41 76.07 75.90 75.98 76.02 76.12 76.44 76.32 76.41 76.18 75.57 75.80 76.02 76.40 76.14 75.82 74.80 75.03 75.62 75.16 75.16 72.90 75.25 74.17 75.37 75.27 75.02 75.19
74.55 75.42 76.54 77.15 77.09 77.34 77.19 76.81 76.87 76.07 76.26 76.43 75.85 76.22 76.09 76.09 75.85 75.74 76.10 76.13 76.22 76.27 76.24 76.02 75.59 75.88 76.35 76.65 76.35 75.81 75.27 75.02 74.60 74.98 74.20 71.98 74.22 74.27 74.71 75.31 75.22 75.07 75.35
75.01 75.44 76.64 76.92 77.03 76.76 76.91 76.69 76.49 76.46 76.49 76.20 76.19 76.16 76.17 76.07 75.93 75.68 75.54 75.90 75.96 76.41 76.27 76.25 76.47 76.90 76.51 76.70 76.43 75.79 75.16 73.84 74.81 74.65 72.69 73.50 74.61 75.42 75.28 74.69 74.71 74.54 74.52
74.74 75.78 75.73 76.21 77.22 77.02 76.91 76.55 76.76 76.18 75.94 76.23 76.35 76.45 76.10 76.18 76.10 75.77 76.40 76.38 76.24 76.16 76.07 76.02 76.07 76.41 76.56 76.15 75.75 75.47 75.19 75.30 74.29 74.02 72.63 74.44 75.76 74.69 74.62 73.50 74.84 74.81 74.83
74.22 74.86 75.24 76.49 77.07 77.60 77.16 77.08 76.91 76.67 76.40 76.32 76.63 76.17 76.50 75.61 76.02 76.24 76.52 76.19 76.24 76.30 75.62 75.49 77.16 76.91 77.25 76.44 75.74 75.05 75.75 74.40 74.04 73.59 74.92 74.13 75.03 75.08 75.50 73.80 74.48 74.39 74.73
72.64 73.63 75.40 76.16 76.43 76.71 75.76 77.50 77.61 77.00 76.27 76.14 76.09 76.61 76.27 76.34 76.72 75.72 76.15 76.27 76.24 75.99 75.83 76.41 75.85 75.76 76.34 75.86 76.25 75.61 73.71 74.24 74.03 73.81 75.14 74.62 75.38 75.11 73.97 73.85 74.55 74.85 73.84
72.89 73.74 75.42 75.97 76.62 76.06 75.70 75.90 76.55 75.64 75.84 76.39 76.67 76.47 76.21 75.84 76.34 75.00 75.38 75.87 76.06 76.61 75.81 76.68 76.52 76.16 76.17 75.25 74.40 73.54 73.85 73.40 73.89 73.95 75.61 75.02 74.47 75.35 73.42 74.21 74.34 74.05 74.11
72.29 73.68 75.15 75.67 76.21 75.75 75.43 75.44 75.34 74.79 74.60 74.59 75.94 76.77 76.13 75.09 74.89 74.46 74.54 75.77 76.02 75.62 75.77 76.66 75.78 76.62 76.81 76.54 75.58 73.88 72.99 73.21 73.21 73.66 74.86 75.02 74.61 73.91 73.77 74.12 73.54 73.88 73.52
72.01 73.39 74.20 75.86 76.58 75.97 76.26 75.47 75.53 75.02 74.39 75.04 75.24 76.07 75.58 74.76 74.85 74.68 74.66 74.87 75.35 75.87 75.68 75.94 76.32 76.55 76.42 76.14 76.05 75.15 73.03 73.12 73.41 73.99 74.35 74.76 74.58 74.67 74.05 73.93 73.89 73.05 73.40
72.50 73.41 74.75 75.24 76.42 76.04 76.42 77.00 77.43 75.95 75.58 75.07 74.97 75.91 76.61 75.53 75.66 75.26 75.51 75.42 75.99 76.97 76.46 76.58 76.56 76.06 75.74 75.76 75.81 75.65 74.74 74.57 74.53 75.23 73.76 74.65 74.63 73.94 73.74 73.89 73.79 73.65 73.67
72.76 73.60 74.36 74.93 75.57 75.94 76.66 77.24 77.93 75.80 75.78 75.65 75.68 76.89 76.99 77.08 77.25 76.67 75.63 75.87 75.99 77.22 77.94 77.59 77.68 76.40 74.84 75.03 75.58 75.49 74.93 75.02 74.87 75.33 76.20 75.60 75.35 74.59 74.83 74.37 74.12 74.08 74.08
72.68 73.54 74.62 74.20 74.63 75.22 75.78 76.58 76.34 76.06 75.97 76.37 76.22 76.63 76.93 77.30 77.47 77.65 75.92 75.69 76.52 77.29 76.99 76.83 77.10 74.32 74.27 74.29 74.57 74.62 74.68 74.66 74.87 75.24 76.07 76.63 75.71 75.61 74.55 74.63 74.82 75.18 75.04
72.72 73.82 74.21 74.76 74.20 75.50 76.79 76.56 76.61 77.34 77.09 78.09 77.09 76.61 77.27 77.12 77.76 77.45 76.14 76.11 77.31 76.44 76.65 76.30 75.62 75.83 73.97 73.88 73.57 74.25 74.92 74.70 75.22 74.46 75.52 76.43 75.59 76.18 75.79 75.20 73.83 74.40 74.89
72.46 73.51 74.54 74.71 75.03 76.04 76.36 76.63 76.01 76.28 76.98 77.59 77.15 76.99 77.69 77.60 77.24 77.27 76.76 77.04 76.71 75.65 75.61 75.79 75.91 75.76 74.96 74.58 72.48 72.95 75.08 75.45 76.30 76.30 75.41 75.19 76.04 76.63 76.74 77.25 76.96 76.03 74.84
71.84 72.24 73.90 74.39 75.44 75.33 74.74 74.14 75.14 74.64 75.94 76.26 77.02 77.18 77.34 77.53 77.76 77.88 76.66 76.12 76.70 75.82 76.55 76.48 75.86 74.87 73.41 75.43 72.55 71.83 72.26 73.34 73.92 75.46 76.06 76.12 75.31 75.92 77.14 77.84 76.98 76.33 76.11
71.31 71.85 73.36 74.59 75.61 75.27 74.73 75.41 75.78 76.18 76.36 76.53 76.67 77.85 77.61 77.50 77.39 77.53 77.55 75.70 76.43 75.46 76.81 76.71 76.07 73.67 73.79 75.25 71.07 70.52 68.51 69.93 71.94 73.64 74.78 74.91 75.15 76.15 76.65 76.36 77.51 77.90 77.26
70.70 72.28 73.08 74.82 75.54 75.95 76.64 76.23 76.76 77.09 77.53 76.52 76.60 76.63 77.14 78.07 77.90 77.77 77.29 78.12 77.39 76.91 74.72 76.81 75.98 75.12 72.07 74.98 74.92 71.84 68.38 66.49 70.17 72.41 73.19 73.51 74.90 75.28 76.07 76.63 76.74 77.26 78.35
71.78 72.52 73.93 74.94 75.58 76.04 76.91 76.37 76.39 74.20 73.20 74.43 75.66 76.21 77.32 78.30 77.88 78.04 78.21 77.99 78.33 77.02 76.92 76.70 75.96 75.87 75.56 71.15 73.85 74.86 75.06 73.67 68.66 67.95 71.75 72.20 73.46 73.00 74.32 75.65 75.14 75.70 77.81
73.29 72.90 73.39 74.97 76.02 76.35 76.85 77.08 75.63 75.54 74.54 75.24 75.18 77.20 78.03 78.32 78.25 77.08 77.83 78.08 78.07 76.93 77.41 76.99 76.95 76.41 74.50 73.70 73.25 73.63 74.87 74.02 74.76 70.77 67.69 69.93 71.76 73.22 74.33 76.03 75.26 76.41 77.37
73.29 73.70 73.98 74.86 75.96 76.55 76.72 77.02 76.88 76.23 75.87 74.83 75.57 75.17 75.51 76.31 77.05 78.29 78.00 78.42 78.32 77.59 77.36 77.21 77.90 77.36 76.41 75.84 74.40 74.35 72.86 71.66 71.13 72.47 70.71 70.79 70.73 72.49 74.59 75.12 75.62 76.22 77.02
MSLP
1015.70 1016.19 1016.92 1017.01 1017.22 1017.38 1017.51 1017.61 1017.73 1017.83 1017.88 1018.06 1018.16 1018.11 1018.10 1018.26 1018.33 1018.35 1018.38 1018.42 1018.48 1018.38 1018.38 1018.50 1018.62 1018.68 1018.71 1018.77 1018.90 1018.97 1018.95 1019.00 1019.03 1018.95 1019.09 1019.18 1019.33 1019.38 1019.32 1019.24 1018.49 1018.91 1019.60
1015.17 1016.14 1017.06 1017.12 1017.37 1017.57 1017.71 1017.84 1017.99 1018.10 1018.21 1018.24 1018.32 1018.32 1018.40 1018.53 1018.61 1018.64 1018.67 1018.65 1018.60 1018.58 1018.70 1018.84 1018.93 1018.93 1019.02 1019.27 1019.31 1019.30 1019.31 1019.36 1019.18 1019.18 1019.27 1019.44 1019.69 1019.70 1019.69 1019.46 1019.55 1019.81 1020.03
1015.11 1016.11 1016.74 1017.22 1017.47 1017.74 1017.98 1018.13 1018.26 1018.34 1018.48 1018.48 1018.60 1018.70 1018.73 1018.74 1018.76 1018.82 1018.85 1018.92 1018.87 1018.86 1019.04 1019.12 1019.32 1019.31 1019.48 1019.66 1019.71 1019.77 1019.69 1019.64 1019.52 1019.41 1019.04 1019.01 1019.79 1020.13 1020.12 1020.12 1020.32 1020.34 1020.37
1014.90 1015.75 1016.50 1017.48 1017.65 1018.00 1018.22 1018.36 1018.50 1018.56 1018.70 1018.76 1018.84 1018.91 1018.93 1018.86 1018.87 1018.98 1019.03 1019.09 1019.30 1019.26 1019.30 1019.42 1019.59 1019.66 1019.84 1019.93 1020.12 1020.20 1020.17 1020.10 1019.86 1019.34 1018.38 1018.76 1019.70 1020.68 1020.66 1020.66 1020.65 1020.68 1020.65
1015.02 1015.54 1016.97 1017.70 1017.89 1018.09 1018.34 1018.54 1018.67 1018.80 1018.94 1019.04 1019.07 1019.16 1019.11 1019.09 1019.16 1019.16 1019.25 1019.38 1019.51 1019.52 1019.62 1019.73 1019.87 1019.99 1020.20 1020.23 1020.50 1020.57 1020.61 1020.41 1019.94 1019.16 1019.08 1019.52 1019.81 1020.95 1021.03 1021.09 1020.94 1020.95 1020.92
1015.32 1015.65 1017.62 1017.89 1018.11 1018.30 1018.51 1018.70 1018.92 1019.07 1019.16 1019.21 1019.31 1019.33 1019.36 1019.36 1019.41 1019.54 1019.64 1019.64 1019.79 1019.82 1019.86 1019.98 1020.01 1020.22 1020.20 1020.68 1020.82 1020.89 1020.92 1020.58 1019.87 1019.90 1019.96 1020.52 1020.69 1021.34 1021.31 1021.34 1021.31 1021.32 1021.28
1015.14 1015.98 1017.24 1018.03 1018.29 1018.51 1018.66 1018.89 1019.12 1019.26 1019.34 1019.38 1019.43 1019.62 1019.72 1019.65 1019.76 1019.82 1019.87 1019.95 1020.04 1019.98 1020.14 1020.15 1020.29 1020.18 1020.62 1020.87 1021.07 1021.20 1021.21 1020.72 1019.95 1019.95 1020.44 1020.64 1021.37 1021.71 1021.70 1021.69 1021.72 1021.63 1021.57
1015.22 1015.83 1017.28 1018.31 1018.51 1018.65 1018.83 1019.06 1019.20 1019.38 1019.52 1019.67 1019.79 1019.88 1020.00 1020.01 1020.10 1020.00 1020.04 1020.20 1020.26 1020.28 1020.43 1020.44 1020.65 1020.49 1020.87 1021.12 1021.24 1021.38 1021.41 1020.94 1020.38 1020.52 1020.58 1021.22 1022.04 1021.96 1021.94 1022.06 1021.97 1021.94 1021.82
1015.36 1015.89 1016.76 1017.46 1018.41 1018.77 1018.93 1019.12 1019.33 1019.48 1019.63 1019.90 1020.01 1020.11 1020.20 1020.18 1020.30 1020.41 1020.36 1020.36 1020.49 1020.60 1020.74 1020.76 1020.89 1020.73 1021.05 1021.22 1021.45 1021.63 1021.72 1021.35 1020.52 1020.45 1020.57 1021.35 1022.43 1022.25 1022.28 1022.34 1022.30 1022.24 1022.16
1015.70 1016.08 1016.63 1017.05 1017.57 1017.94 1018.63 1019.38 1019.51 1019.70 1019.93 1020.00 1020.12 1020.15 1020.27 1020.31 1020.43 1020.55 1020.58 1020.70 1020.75 1020.89 1021.22 1021.09 1021.18 1021.23 1021.35 1021.51 1021.67 1021.89 1021.73 1021.23 1020.66 1020.47 1021.03 1022.08 1022.49 1022.46 1022.51 1022.58 1022.54 1022.51 1022.45
1016.08 1016.42 1016.54 1017.03 1017.77 1018.34 1018.45 1019.30 1019.63 1019.86 1019.96 1020.10 1020.22 1020.21 1019.93 1019.37 1019.59 1020.32 1020.84 1021.00 1021.04 1021.17 1021.17 1021.34 1021.38 1021.31 1021.53 1021.91 1022.00 1021.84 1021.40 1020.52 1020.51 1020.60 1021.27 1022.76 1022.63 1022.74 1022.71 1022.85 1022.88 1022.84 1022.79
1016.11 1016.41 1016.47 1017.06 1017.66 1017.94 1017.90 1018.83 1019.38 1019.28 1018.95 1019.18 1019.48 1019.79 1019.57 1019.72 1020.27 1020.39 1021.05 1021.24 1021.34 1021.41 1021.43 1021.57 1021.61 1021.25 1021.14 1020.71 1021.12 1021.21 1020.60 1020.97 1020.62 1020.63 1022.05 1022.91 1022.84 1022.89 1022.96 1023.04 1023.12 1023.06 1023.13
1016.14 1016.47 1016.94 1017.47 1017.87 1017.90 1018.40 1018.36 1018.55 1018.81 1019.15 1019.80 1020.08 1019.82 1019.98 1019.92 1020.02 1020.04 1020.53 1020.48 1020.79 1021.00 1020.38 1020.81 1020.76 1020.52 1020.85 1020.25 1020.52 1020.68 1021.11 1020.77 1020.69 1020.75 1022.52 1022.95 1022.92 1023.02 1023.12 1023.22 1023.25 1023.26 1023.29
1016.48 1016.88 1017.11 1017.81 1018.15 1018.15 1018.52 1018.24 1018.66 1018.89 1019.18 1019.46 1020.17 1020.50 1020.40 1020.04 1020.25 1020.29 1020.46 1020.89 1020.82 1020.41 1020.89 1020.68 1020.76 1021.23 1021.06 1021.14 1020.81 1020.92 1020.98 1020.77 1020.73 1020.82 1022.53 1023.07 1023.15 1023.19 1023.23 1023.34 1023.38 1023.39 1023.38
1016.69 1016.99 1017.39 1018.00 1018.53 1018.80 1018.85 1018.72 1018.78 1019.28 1018.98 1019.70 1019.96 1020.50 1020.17 1020.10 1020.52 1020.62 1020.91 1020.74 1020.78 1020.68 1020.72 1020.86 1020.91 1021.00 1020.95 1020.93 1021.06 1021.14 1021.22 1021.48 1021.44 1021.14 1021.73 1023.10 1023.29 1023.28 1023.29 1023.34 1023.45 1023.45 1023.46
1016.65 1017.10 1017.65 1018.22 1018.68 1019.00 1019.02 1019.36 1019.93 1019.30 1019.68 1019.52 1019.82 1020.54 1020.77 1020.38 1020.57 1020.72 1020.84 1020.83 1020.89 1020.77 1020.89 1020.91 1021.20 1020.80 1020.70 1020.87 1021.44 1021.39 1021.36 1021.54 1021.89 1021.67 1021.57 1022.58 1023.16 1023.34 1023.36 1023.29 1023.35 1023.44 1023.52
1016.62 1017.27 1017.81 1018.24 1018.64 1019.13 1019.42 1019.77 1019.89 1019.54 1019.54 1019.50 1019.90 1020.75 1020.97 1020.83 1021.07 1020.91 1020.84 1020.77 1020.93 1021.36 1021.43 1021.36 1021.13 1020.88 1020.70 1020.86 1021.48 1021.53 1021.40 1021.66 1021.76 1021.94 1021.62 1021.49 1022.33 1023.00 1023.21 1023.26 1023.27 1023.30 1023.36
1016.59 1017.39 1017.97 1017.96 1018.55 1019.06 1019.28 1019.64 1019.31 1019.49 1019.62 1019.66 1019.86 1020.44 1020.90 1021.09 1021.15 1021.09 1020.79 1020.73 1021.08 1021.20 1021.01 1020.94 1020.76 1020.75 1020.74 1020.81 1021.18 1021.19 1021.39 1021.41 1021.76 1021.85 1021.76 1021.68 1021.80 1021.48 1022.61 1022.96 1023.13 1023.16 1023.16
1016.63 1017.47 1017.95 1018.30 1018.60 1019.10 1019.49 1019.44 1019.57 1020.00 1019.86 1019.98 1019.90 1020.06 1020.85 1020.91 1020.96 1020.70 1020.59 1021.02 1021.42 1021.03 1020.97 1020.70 1020.94 1020.79 1020.98 1020.82 1020.83 1021.17 1021.23 1021.16 1021.40 1021.13 1021.61 1021.78 1021.72 1021.71 1021.53 1022.50 1022.77 1022.88 1022.97
1016.66 1017.46 1017.98 1018.41 1018.83 1019.20 1019.41 1019.71 1019.50 1019.64 1019.85 1019.89 1019.85 1019.99 1020.83 1021.00 1021.17 1020.98 1020.80 1021.16 1021.09 1020.95 1021.04 1020.80 1021.23 1021.22 1021.09 1021.18 1020.53 1020.93 1020.95 1020.88 1021.06 1020.95 1020.88 1020.97 1021.26 1021.60 1021.42 1021.79 1021.72 1021.51 1022.39
1016.46 1017.21 1017.86 1018.34 1018.87 1019.24 1019.34 1019.35 1019.40 1019.50 1019.57 1019.91 1019.88 1020.49 1020.82 1020.94 1021.13 1021.14 1020.64 1021.13 1021.13 1020.96 1021.32 1021.57 1021.51 1021.58 1021.31 1021.61 1020.90 1020.62 1020.61 1020.75 1020.68 1020.62 1020.47 1020.47 1020.69 1020.88 1021.10 1021.17 1021.42 1021.19 1021.27
1016.06 1016.94 1017.79 1018.29 1018.83 1019.20 1019.16 1019.12 1019.15 1019.23 1019.28 1019.98 1020.52 1020.50 1020.59 1020.90 1021.08 1021.08 1021.16 1021.03 1021.04 1020.96 1021.69 1021.76 1021.72 1021.18 1021.27 1021.55 1020.81 1020.58 1019.86 1020.11 1019.98 1020.09 1020.21 1020.35 1020.42 1020.39 1020.49 1020.74 1021.00 1021.22 1021.29
1015.67 1016.61 1017.49 1018.22 1018.70 1019.11 1019.03 1019.34 1019.65 1019.61 1019.70 1019.89 1020.07 1020.24 1020.49 1020.75 1020.97 1021.04 1021.34 1020.90 1021.24 1021.03 1021.13 1021.71 1021.78 1021.54 1020.82 1021.60 1021.76 1020.77 1019.81 1019.53 1019.53 1019.90 1020.27 1020.10 1020.45 1020.24 1020.28 1020.42 1020.65 1020.79 1021.03
1015.18 1016.07 1017.10 1018.05 1018.60 1019.01 1019.29 1019.16 1019.39 1019.03 1018.89 1019.04 1019.55 1019.74 1020.25 1020.68 1020.81 1020.96 1021.10 1021.17 1021.34 1020.87 1021.27 1021.55 1021.62 1021.58 1021.42 1021.15 1021.41 1021.41 1021.62 1021.34 1019.83 1019.13 1019.60 1019.97 1020.13 1019.89 1020.14 1019.89 1019.88 1020.12 1020.54
1014.63 1015.40 1016.42 1017.54 1018.32 1018.62 1019.06 1019.25 1019.34 1019.47 1018.82 1019.28 1019.25 1020.00 1020.41 1020.82 1020.96 1020.95 1021.05 1021.11 1021.21 1021.11 1021.42 1021.48 1021.86 1021.94 1021.58 1021.22 1021.07 1021.20 1021.45 1021.04 1021.11 1019.83 1019.15 1019.48 1019.68 1019.68 1019.69 1019.58 1019.72 1019.74 1020.04
1014.09 1014.82 1015.75 1016.91 1017.80 1018.45 1018.84 1019.27 1019.36 1019.19 1019.20 1018.82 1019.56 1019.67 1019.85 1020.02 1020.45 1020.88 1020.92 1021.03 1021.16 1021.24 1021.53 1021.50 1021.66 1021.94 1021.88 1021.77 1021.51 1021.46 1020.90 1020.57 1020.30 1020.03 1019.54 1019.69 1019.44 1019.66 1019.46 1019.38 1019.52 1019.59 1019.71
Wind_Speed
12 13 9 14 14 13 13 13 13 13 12 12 12 12 12 11 10 11 12 11 12 13 13 14 12 14 15 16 16 15 16 16 16 17 18 17 18 15 12 11 15 19 18
17 15 11 13 14 13 13 12 11 12 11 11 12 11 10 10 10 9 10 10 12 13 13 13 12 14 13 15 15 14 14 14 13 16 17 19 16 16 16 19 19 16 17
18 16 14 10 14 13 12 12 11 11 11 12 12 11 11 10 10 9 10 10 11 12 13 12 13 13 13 14 14 14 16 15 10 10 11 13 15 15 16 17 17 17 15
17 16 15 9 12 13 12 11 11 11 11 11 10 11 10 11 10 10 9 10 11 13 13 13 14 13 14 15 15 15 15 12 6 4 8 14 15 15 14 15 15 15 14
16 14 15 11 12 12 12 11 9 10 11 11 10 11 10 11 11 12 11 11 12 12 13 13 14 16 15 12 13 14 13 10 5 7 12 11 12 13 12 13 14 14 16
15 15 14 12 12 12 11 10 9 9 10 10 10 10 11 11 12 12 11 13 12 12 12 13 15 15 12 12 13 13 11 5 4 12 10 12 13 12 13 13 14 13 13
15 16 15 11 12 12 10 10 9 10 9 9 10 11 11 12 12 12 12 13 12 12 12 13 14 15 12 12 13 12 9 6 10 10 10 11 11 12 13 12 12 12 12
14 15 15 12 10 10 10 10 10 10 9 10 9 11 12 12 11 12 13 13 13 12 11 13 12 12 13 13 12 11 7 2 8 10 11 10 9 11 11 12 12 11 12
13 13 12 13 11 8 9 9 10 10 10 10 10 12 12 13 12 11 11 13 13 13 11 17 12 12 13 13 12 12 8 4 8 6 10 9 7 10 11 11 10 12 11
11 11 9 9 9 10 12 10 11 10 10 10 11 12 12 13 12 11 12 12 12 12 11 13 12 12 12 13 13 10 9 9 9 7 9 8 7 9 11 10 9 9 10
10 10 11 12 10 8 10 11 11 12 11 12 13 9 12 8 10 13 14 12 12 11 12 10 12 11 14 14 11 8 11 6 7 5 8 5 7 8 10 9 9 9 8
12 10 9 10 10 9 8 8 7 8 7 6 8 7 7 8 11 12 12 12 11 10 9 10 8 6 11 8 6 12 6 5 5 6 9 5 9 9 9 7 7 8 9
12 9 10 10 8 8 8 6 5 4 6 7 7 5 7 8 7 7 8 8 8 10 7 8 6 5 7 6 4 7 6 5 4 7 10 6 6 8 8 5 8 6 7
12 11 10 11 8 7 6 5 5 5 6 6 8 6 5 5 6 6 5 6 4 5 5 3 5 5 4 3 8 7 7 5 5 5 9 7 7 6 5 5 6 5 5
12 11 11 11 8 8 6 5 6 6 5 8 7 5 5 7 6 7 5 5 4 4 5 4 4 5 4 6 7 6 8 7 5 4 7 7 5 4 3 3 3 3 3
13 11 12 11 9 9 7 6 4 4 6 5 6 8 5 7 5 6 5 5 4 3 4 4 5 4 4 7 6 7 6 7 5 1 4 9 6 2 1 1 1 1 3
12 12 11 11 11 9 9 7 5 6 5 5 8 6 6 5 4 3 4 3 4 3 2 3 2 3 6 6 6 5 6 4 6 4 2 3 10 10 5 2 1 2 3
12 12 11 10 12 10 9 6 5 5 4 4 5 6 5 4 4 4 5 3 4 3 2 2 1 5 4 5 5 4 4 4 4 4 3 2 3 1 10 6 3 4 5
12 13 13 10 11 10 9 7 5 6 3 2 4 4 5 4 5 3 4 5 4 3 3 3 3 2 4 4 7 5 4 4 4 5 3 2 4 2 3 10 6 7 7
13 12 12 11 10 10 8 5 5 6 4 4 4 3 5 4 4 4 4 4 5 4 4 3 2 2 3 3 2 5 2 3 2 2 3 4 3 3 3 1 3 5 11
12 13 13 12 12 9 8 8 6 7 5 5 4 4 5 4 4 4 3 5 4 4 5 3 5 4 4 2 4 5 4 5 5 2 1 1 4 4 2 1 4 3 5
14 13 12 12 12 11 8 6 4 3 4 6 6 5 5 5 5 4 1 5 3 5 4 3 4 3 3 2 4 2 2 7 4 2 2 1 1 1 1 3 1 1 4
14 14 13 13 12 11 9 6 5 4 3 6 6 6 6 6 6 4 6 2 4 4 6 4 5 3 4 2 3 6 2 5 3 4 5 2 2 1 1 1 1 1 2
15 15 13 13 13 12 11 8 8 6 6 5 6 5 5 6 6 6 5 5 3 2 2 4 4 1 5 5 3 2 4 5 5 5 6 5 4 4 4 1 2 3 1
16 14 15 14 13 12 12 10 8 9 6 5 5 7 6 5 6 6 6 6 5 5 4 3 4 3 3 2 2 2 1 1 2 5 5 5 5 3 3 1 3 1 1
16 16 14 15 13 13 13 13 11 9 9 5 5 6 6 7 7 6 6 6 5 4 4 6 4 4 4 3 3 3 3 3 5 1 2 3 3 4 3 4 3 3 3
Wind_Direction
151 132 144 127 119 118 115 110 109 107 104 97 90 87 87 90 82 90 88 91 86 90 85 91 88 89 85 88 88 92 91 94 97 96 94 90 83 82 89 105 117 88 82
143 139 149 131 129 123 120 115 110 110 103 108 92 91 94 95 97 92 97 90 94 86 90 89 88 83 87 88 90 94 93 92 94 101 103 90 83 80 73 65 66 81 84
144 133 146 135 131 129 121 118 119 111 112 104 103 104 107 111 106 100 102 93 94 93 91 89 88 89 89 91 92 95 92 90 93 113 140 95 85 82 79 82 79 79 82
143 147 136 132 138 136 129 123 124 115 113 103 100 103 96 100 105 110 93 101 103 93 93 91 94 90 83 88 85 86 85 90 86 221 106 87 91 83 84 86 90 92 90
144 140 113 140 140 133 130 125 119 116 113 106 99 93 98 94 89 94 96 97 93 93 92 90 91 85 84 82 88 89 89 93 135 89 81 66 87 86 88 96 97 79 60
139 133 129 136 138 134 134 124 112 111 107 99 95 95 92 86 95 91 100 96 92 93 91 93 97 91 89 91 94 93 93 123 192 98 90 77 65 89 85 82 87 82 77
145 127 138 136 132 134 127 118 114 108 106 104 89 90 92 91 91 90 98 98 99 95 97 99 98 111 98 97 95 92 81 33 80 82 104 82 84 88 85 86 80 79 81
142 138 131 129 125 124 129 121 117 114 113 102 100 98 95 92 96 97 100 105 104 102 93 103 106 105 107 102 98 97 91 20 96 92 70 81 89 90 90 83 80 83 77
139 131 141 137 131 125 121 119 114 115 113 108 102 104 99 99 97 101 100 105 102 98 94 87 110 96 97 100 99 97 87 15 88 102 108 103 87 91 84 78 77 74 73
147 138 126 143 131 150 142 124 120 118 123 116 108 109 111 102 107 114 123 98 103 101 97 96 104 104 102 101 102 111 150 203 84 96 82 83 99 94 90 80 73 78 73
146 150 158 135 143 116 127 124 129 119 123 124 120 131 177 108 118 113 80 107 104 100 89 90 92 109 114 107 115 160 214 72 110 90 88 74 79 76 88 77 68 66 79
157 156 135 129 135 143 127 131 100 141 110 107 108 112 105 84 59 85 102 107 107 107 95 91 96 154 181 126 146 192 84 102 82 91 80 96 86 81 76 79 69 72 63
155 151 145 128 142 158 111 148 141 125 129 112 116 113 107 128 141 112 136 143 131 183 137 148 152 62 42 40 65 74 108 109 115 82 91 119 82 85 77 55 73 59 68
162 157 151 141 150 124 135 143 123 117 124 122 103 122 139 121 112 107 95 106 145 89 114 77 90 62 69 82 63 67 84 90 83 100 101 80 77 78 83 66 60 49 46
167 162 154 144 152 140 168 125 109 134 126 114 134 108 104 110 108 108 112 99 94 136 108 103 82 52 93 101 88 82 86 73 86 61 103 98 63 66 73 59 85 46 16
164 173 152 158 157 154 139 144 142 124 113 126 119 112 110 103 111 123 128 113 114 86 74 72 48 50 80 110 100 74 75 100 67 80 89 129 146 125 73 356 35 4 342
170 170 159 164 163 163 149 155 201 150 137 131 111 132 116 134 122 123 112 126 109 99 135 130 127 113 111 112 97 91 108 98 109 102 92 53 149 170 190 236 287 305 306
171 168 171 175 164 169 154 165 161 131 156 131 136 142 144 138 144 192 174 136 112 150 133 109 99 95 97 105 90 77 99 114 109 117 99 353 52 84 173 185 239 276 277
172 172 174 181 172 168 157 168 168 127 147 241 162 151 150 169 151 173 150 117 195 148 115 141 106 101 119 98 138 127 113 106 160 116 105 135 111 270 16 154 192 235 253
175 178 178 178 172 176 161 175 177 159 175 180 172 159 162 151 157 200 132 141 207 156 147 102 97 70 54 21 75 89 85 132 138 140 137 184 136 203 213 323 236 180 206
184 182 183 182 174 185 183 186 186 186 176 188 182 156 169 177 167 188 168 157 225 164 66 167 162 160 125 103 223 167 142 184 175 198 183 201 117 207 64 226 264 344 178
185 187 188 190 182 197 190 200 210 225 188 161 206 178 189 174 181 171 226 187 211 133 151 161 211 151 109 74 4 244 150 159 135 52 111 217 55 337 151 201 342 266 281
184 189 191 193 187 195 202 191 186 181 184 189 169 183 182 199 186 175 180 246 169 258 160 172 185 247 124 147 337 328 255 66 190 127 154 133 139 171 23 169 213 214 253
192 192 188 195 196 195 199 196 214 217 202 188 190 173 148 190 189 178 190 188 201 207 122 177 185 284 279 139 162 95 356 358 351 115 116 106 185 206 87 248 129 143 165
197 196 192 190 199 206 199 230 202 239 206 186 209 138 179 182 196 190 190 188 183 222 168 216 181 242 179 321 293 183 55 123 126 323 63 109 130 114 111 152 33 37 107
200 204 196 191 197 203 206 209 221 221 249 230 212 184 192 189 174 202 194 192 190 194 206 201 193 208 274 290 273 283 324 334 62 4 89 85 81 106 70 78 72 68 51